Вернуться в каталог

STARLINK-31981

АктивенСвязьVLEO
NORAD 60035·PAYLOAD·🇺🇸 United States

Запущен Jun 8, 2024 с Cape Canaveral Space Force Station

Loading…

Ближайшие Пролёты (ближайшие 24 часа)

TLE

СвежийSource: CelesTrak SupGP

Эпоха: Sep 15, 2026, 02:14 UTC

1 60035C 24111V   26258.09354167  .00006518  00000+0  19256-3 0  2584
2 60035  53.1571 274.8159 0001189  89.3597  25.6359 15.34390923    14

Отслеживайте STARLINK-31981 в реальном времени с AllMySat

Download on the App Store